Location: ČR
(50.0000°N, 15.0000°E)
Time: 14:36:00
(UTC+00:00)

Explorer 7 - Pass Details

Date: 27 October 2021
Orbit: 483 x 675 km, 50.3° (Epoch: 27 November)

Event Time Altitude Azimuth Distance (km) Brightness Sun altitude
Rises 02:00:51 0° 280° (W) 2,866 - -35.4°
Reaches altitude 10° 02:04:13 10° 254° (WSW) 2,000 - -34.9°
Maximum altitude 02:06:24 13° 225° (SW) 1,808 - -34.6°
Drops below altitude 10° 02:08:38 10° 197° (SSW) 2,043 - -34.2°
Sets 02:12:09 0° 171° (S) 2,979 - -33.7°
